Torna al catalogo

ONEWEB-0235

AttivoComunicazioniPO
NORAD 48771·PAYLOAD·🇬🇧 United Kingdom

Lanciato May 28, 2021 da Vostochny Cosmodrome

Loading…

Prossimi Passaggi (prossime 24 ore)

TLE

AggiornatoSource: CelesTrak SupGP

Epoca: Sep 14, 2026, 17:32 UTC

1 48771C 21045E   26257.73108056  .00001810  00000+0  48140-2 0  2576
2 48771  87.8987 241.3419 0002160  75.1161 319.2867 13.15545411    17

Traccia ONEWEB-0235 in tempo reale con AllMySat

Download on the App Store